Location: Roanoke
(37.2710°N, 79.9420°W)
Time: 20:10:35
(UTC-05:00)

Courier 1B Rocket - Pass Details

Date: 21 November 2019
Orbit: 920 x 1202 km, 28.2° (Epoch: 05 December)

Event Time Altitude Azimuth Distance (km) Brightness Sun altitude
Rises 12:44:21 0° 212° (SSW) 3,634 8.9 32.0°
Reaches altitude 10° 12:47:55 10° 193° (SSW) 2,736 8.9 31.9°
Maximum altitude 12:52:02 17° 154° (SSE) 2,311 8.0 31.7°
Drops below altitude 10° 12:56:19 10° 116° (ESE) 2,867 7.7 31.5°
Sets 13:00:10 0° 97° (E) 3,885 8.1 31.3°
